Regional Weather Roundup
Issued by NWS

Home | Current Version | Previous Version | Text Only | Print | Product List | Glossary On
Versions: 1 2 3 4 5 6 7 8 9 10 11 12 13 14 15 16 17 18 19 20 21 22 23 24 25 26 27 28 29 30 31 32 33 34 35 36 37 38 39 40 41 42 43 44 45 46 47 48 49 50
000
ASUS43 KMKX 300221
RWRWI

WISCONSIN REGIONAL WEATHER ROUNDUP
NATIONAL WEATHER SERVICE MILWAUKEE/SULLIVAN WI
900 PM CDT SAT APR 29 2017

NOTE: "FAIR" INDICATES FEW OR NO CLOUDS BELOW 12,000 FEET WITH NO
SIGNIFICANT WEATHER AND/OR OBSTRUCTIONS TO VISIBILITY.

WIZ001-002-006>008-014>016-023>028-300300-
NORTHWEST WISCONSIN

CITY           SKY/WX    TMP DP  RH WIND       PRES   REMARKS
SUPERIOR ARPT  PTCLDY    38  22  51 NE12      30.29R WCI  31
ASHLAND        CLOUDY    35  21  56 NE6       30.30S WCI  30
HAYWARD        CLOUDY    40  19  43 NE10      30.25R WCI  33
SIREN          CLOUDY    45  20  38 CALM      30.25R
CUMBERLAND     CLOUDY    43  23  45 NE10      30.24R
RICE LAKE      CLOUDY    46  26  46 NE13      30.23R
CHETEK         CLOUDY    46  28  48 NE9       30.22R
LADYSMITH      CLOUDY    45  28  49 NE9       30.23R
EAU CLAIRE     MOCLDY    50  25  37 E12       30.20R
MENOMONIE      CLOUDY    50  25  37 NE8       30.21R
NEW RICHMOND   CLOUDY    48  24  38 NE12      30.22R
OSCEOLA        CLOUDY    48  23  37 NE12      30.24R
$$

WIZ003>005-009-010-017-018-300300-
NORTH CENTRAL WISCONSIN

CITY           SKY/WX    TMP DP  RH WIND       PRES   REMARKS
MANITOWISH WTR CLOUDY    39  22  51 NE6       30.26R WCI  35
ARBOR VITAE    MOCLDY    42  24  48 NE5       30.25R
WOODRUFF       MOCLDY    42  24  48 NE5       30.25R
RHINELANDER    MOCLDY    46  23  40 NE7       30.26R
EAGLE RIVER    CLOUDY    41  19  41 NE8       30.27R
LAND O LAKES   CLOUDY    40  19  42 NE8       30.30R WCI  35
PHILLIPS       CLOUDY    42  26  54 NE12G17   30.21F
TOMAHAWK       MOCLDY    45  23  42 NE7       30.23F
MEDFORD        CLOUDY    45  27  49 NE12G20   30.18F
MERRILL        MOCLDY    47  26  43 E9        30.22S
$$

WIZ029-030-035-036-043>047-300300-
CENTRAL WISCONSIN

CITY           SKY/WX    TMP DP  RH WIND       PRES   REMARKS
WAUSAU         CLOUDY    44  31  60 SE9       30.21R
MOSINEE        CLOUDY    43  30  61 E14G20    30.23R
MARSHFIELD     CLOUDY    45  31  58 E13       30.16F
STEVENS POINT  CLOUDY    42  26  53 NE9       30.22S
WAUPACA        CLOUDY    46  29  51 NE9G16    30.22R
WAUTOMA        CLOUDY    44  31  60 MISG        N/A
WISC RAPIDS    CLOUDY    45  30  55 E9        30.19F
CAMP DOUGLAS   CLOUDY    44  29  54 E18       30.14F
$$

WIZ011>013-019>022-031-037>040-048>050-300300-
NORTHEAST WISCONSIN

CITY           SKY/WX    TMP DP  RH WIND       PRES   REMARKS
ANTIGO         CLOUDY    43  21  41 E14G20    30.26R
SHAWANO        CLOUDY    46  29  51 E18       30.25S
OCONTO         CLOUDY    44  31  59 NE10      30.27S
STURGEON BAY   CLOUDY    43  29  57 NE13      30.27F
GREEN BAY      CLOUDY    46  28  49 E16G26    30.22F
MANITOWOC      CLOUDY    43  27  53 NE10G18   30.23S
APPLETON       MOCLDY    45  25  45 E17G26    30.17F
CLINTONVILLE   CLOUDY    45  27  49 E13G20    30.23R
OSHKOSH        LGT RAIN  44  28  53 E23G32    30.14F
$$

WIZ032>034-041-042-053>061-300300-
SOUTHWEST WISCONSIN

CITY           SKY/WX    TMP DP  RH WIND       PRES   REMARKS
LA CROSSE      CLOUDY    49  29  46 E15G21    30.15R
SPARTA         CLOUDY    46  32  57 E8        30.16R
VIROQUA        CLOUDY    43  28  55 NE20G33   30.11S
BOSCOBEL       CLOUDY    43  33  68 E8G21     30.11F
PRAIRIE DU CHI CLOUDY    43  32  64 E9G20     30.11R
PLATTEVILLE    CLOUDY    40  36  84 NE20      30.07R WCI  30
$$

WIZ056-057-062-063-064-067-068-300300-
SOUTH CENTRAL WISCONSIN

CITY           SKY/WX    TMP DP  RH WIND       PRES   REMARKS
REEDSBURG      CLOUDY    42  29  60 NE17      30.13F
BARABOO/DELLS  CLOUDY    42  28  57 NE16G22   30.13F
LONE ROCK      CLOUDY    41  31  67 NE21G30   30.11F
MINERAL POINT  CLOUDY    39  36  87 NE21G26   30.07R WCI  29
MADISON        LGT RAIN  38  34  85 NE17      30.11S WCI  28
MIDDLETON      CLOUDY    39  35  86 NE13G22   30.12R WCI  32
WATERTOWN      LGT RAIN  37  37 100 E20G28    30.08F WCI  26
MONROE         LGT RAIN  36  36 100 N24       30.04R WCI  24
JANESVILLE     LGT RAIN  39  39 100 NE30G38   29.98F WCI  27
$$

WIZ051-052-058>065-066-070>072-300300-
SOUTHEAST WISCONSIN

CITY           SKY/WX    TMP DP  RH WIND       PRES   REMARKS
MILWAUKEE      LGT RAIN  40  37  89 NE22G31   30.12F WCI  30
WAUKESHA       LGT RAIN  36  34  93 NE15G21   30.14F FOG     WCI  26
MILWAUKEE/TIMM RAIN      37  34  87 NE15G21   30.17F WCI  28
RACINE         LGT RAIN  40  36  86 NE20G28   30.13F WCI  30
KENOSHA        LGT RAIN  40  37  89 NE20G28   30.09F WCI  30
FOND DU LAC    LGT RAIN  41  28  60 E18G24    30.15F
SHEBOYGAN      LGT RAIN  39  35  86 NE16      30.20F WCI  30
WEST BEND      LGT RAIN  36  36 100 NE15G23   30.15F WCI  26
JUNEAU         LGT RAIN  37  33  87 NE20G29   30.12F WCI  26
$$

LSZ147-162-300300-
LAKE SUPERIOR

STATION/POSITION TIME  TEMP    WIND        PRES    WAVE
                       AIR SEA DIR/SP/G            HT/PER
                 (UTC) (F)     (DEG/KT/KT) (MB)    (FT/S)
DEVILS ISLAND    0100   38      60/ 10/ 11 1026.7F
PORT WING        0140   40      40/  8/ 11 1025.4S
SAXON HARBOR     0130   38      60/  3/  6 1025.7R
$$

LMZ867-665-643>646-300300-
LAKE MICHIGAN

STATION/POSITION TIME  TEMP    WIND        PRES    WAVE
                       AIR SEA DIR/SP/G            HT/PER
                 (UTC) (F)     (DEG/KT/KT) (MB)    (FT/S)
CHAMBERS ISLAND  0140   42      10/ 14/ 16 1025.4R
N MID LAKE BUOY  0050   40 37   30/ 12/ 14 1026.7R   1/ 3
NORTHPORT PIER   0140   43      20/ 10/ 11 1025.7R
KEWAUNEE LAKESHO 0154   42      40/ 12/ 17 1023.9F
SHEBOYGAN LAKESH 0100   40      40/ 15/ 17 1023.8F
PORT WASHINGTON  0140   40      30/ 14/ 19 1023.0F
MILWAUKEE LAKESH 0200   39      40/ 26/ 30   N/A
S MID LAKE BUOY  0050   41 41   30/ 16/ 17 1022.2R   5/ 7
KENOSHA   LAKESH 0100   41      40/ 27/ 31 1020.7
$$

TC  - TEMPERATURE IN CELSIUS
VSB - VISIBILITY IN STATUTE MILES
WCI - WIND CHILL INDEX
HX  - HEAT INDEX





USA.gov is the U.S. government's official web portal to all federal, state and local government web resources and services.